EDT,Max TemperatureF,Mean TemperatureF,Min TemperatureF,Max Dew PointF,MeanDew PointF,Min DewpointF,Max Humidity, Mean Humidity, Min Humidity, Max Sea Level PressureIn, Mean Sea Level PressureIn, Min Sea Level PressureIn, Max VisibilityMiles, Mean VisibilityMiles, Min VisibilityMiles, Max Wind SpeedMPH, Mean Wind SpeedMPH, Max Gust SpeedMPH,PrecipitationIn, CloudCover, Events, WindDirDegrees
2011-9-1,92,77,62,67,62,59,93,65,36,30.16,30.09,30.01,10,8,4,13,1,17,0.00,1,,245
2011-9-2,95,80,65,66,64,57,93,65,36,30.12,30.02,29.95,10,8,2,12,2,17,0.00,2,,359
2011-9-3,96,80,64,65,63,60,87,62,36,29.99,29.95,29.87,10,10,9,13,1,16,0.00,2,Thunderstorm,36
2011-9-4,89,77,65,67,64,60,90,67,43,29.91,29.87,29.80,10,9,4,16,2,21,0.06,6,Rain-Thunderstorm,269
2011-9-5,72,68,63,68,65,60,93,89,84,29.92,29.77,29.67,10,4,1,15,2,24,2.23,8,Rain,29
2011-9-6,85,75,64,68,59,32,87,64,40,29.79,29.65,29.59,10,10,6,17,6,25,0.11,6,Rain,99
2011-9-7,71,67,62,61,59,57,90,78,66,30.00,29.89,29.77,10,8,2,14,6,16,0.03,8,Rain,243
2011-9-8,71,66,60,59,56,55,90,76,61,29.99,29.93,29.88,10,10,8,8,3,9,T,8,Rain,251
2011-9-9,75,66,56,59,57,55,90,72,53,29.98,29.92,29.88,10,10,7,13,4,15,0.01,7,Rain,246
2011-9-10,79,67,54,57,55,51,93,66,39,30.09,30.02,29.98,10,5,0,12,2,14,0.00,2,Fog,241
2011-9-11,82,68,53,60,55,51,93,65,36,30.11,30.07,30.02,10,8,3,16,2,21,T,3,,283
2011-9-12,81,69,56,60,58,55,93,68,42,30.18,30.08,30.01,10,6,1,10,2,15,T,3,,326
2011-9-13,84,69,54,60,56,52,93,64,34,30.12,30.05,29.98,10,6,0,8,1,14,0.00,1,Fog,263
2011-9-14,86,71,55,60,56,51,93,63,32,30.08,29.98,29.89,10,8,2,8,1,13,0.00,1,,60
2011-9-15,74,64,53,63,55,47,90,79,68,30.20,30.02,29.86,10,7,2,16,5,23,0.16,7,Rain,1
2011-9-16,66,58,49,47,43,40,83,64,44,30.23,30.20,30.16,10,10,10,10,3,17,0.00,6,,41
2011-9-17,75,63,51,54,49,43,89,65,41,30.28,30.22,30.16,10,10,10,7,1,10,0.03,4,Rain,95
2011-9-18,77,64,51,57,52,48,89,70,50,30.27,30.21,30.15,10,10,10,8,2,13,0.00,3,,72
2011-9-19,78,65,52,58,53,49,89,68,47,30.19,30.10,30.01,10,10,10,10,3,13,T,6,Rain,179
2011-9-20,80,70,60,63,59,55,90,69,48,30.13,30.07,30.02,10,9,6,7,1,12,0.05,7,Rain,104
2011-9-21,80,72,63,65,62,60,93,74,54,30.15,30.06,29.99,10,9,1,16,1,23,0.10,6,Rain-Thunderstorm,140
2011-9-22,80,72,64,66,63,62,93,74,54,30.19,30.09,30.01,10,5,0,10,0,12,0.02,7,Fog-Rain-Thunderstorm,40
2011-9-23,79,70,61,64,61,55,93,79,64,30.03,29.96,29.91,10,9,2,21,5,28,0.24,6,Rain,268
2011-9-24,76,68,59,59,56,53,90,68,46,30.08,29.99,29.93,10,9,5,8,1,9,0.00,7,,332
2011-9-25,84,70,56,62,57,53,93,65,37,30.05,29.96,29.86,10,5,0,16,3,21,0.00,3,Fog,249
2011-9-26,87,73,59,65,61,57,93,68,43,29.94,29.84,29.76,10,10,4,20,5,24,0.09,5,Rain,198
2011-9-27,78,68,58,64,57,42,93,62,31,29.98,29.88,29.83,10,9,5,17,5,22,T,6,,231
2011-9-28,77,64,50,56,52,48,89,65,41,29.94,29.85,29.79,10,10,6,18,4,24,0.00,2,,251
2011-9-29,77,66,54,58,53,48,93,66,38,29.89,29.83,29.79,10,9,1,16,5,21,0.01,4,,257
2011-9-30,70,61,51,55,47,41,93,65,36,29.90,29.83,29.76,10,10,8,22,9,28,T,6,,284